• en Suisse
  • Liste des pays
  • À 7 jours
  • Température de l'eau
  • Carte satellitaire
  • Carte météo
  • Widgets météo
  • user-avatar
    Se connecter

    Météo par heure à Kinshasa

    Ce jour, 21 Février, Mercredi

    Heure Température Précipitation Vent Pression Humidité
    00:00 +25°C° 0,3 mm 1 m/s 705 mmHg 81%
    01:00 +25°C° 0,3 mm 1 m/s 705 mmHg 83%
    02:00 +24°C° 0,2 mm 1 m/s 705 mmHg 84%
    03:00 +24°C° 0,2 mm 1 m/s 705 mmHg 86%
    04:00 +24°C° 0,2 mm 1 m/s 705 mmHg 87%
    05:00 +24°C° 0 mm 1 m/s 705 mmHg 87%
    06:00 +24°C° 0 mm 1 m/s 706 mmHg 86%
    07:00 +24°C° 0 mm 1 m/s 706 mmHg 85%
    08:00 +27°C° 0 mm 2 m/s 706 mmHg 73%
    09:00 +30°C° 0 mm 2 m/s 707 mmHg 61%
    10:00 +34°C° 0 mm 2 m/s 707 mmHg 49%
    11:00 +35°C° 0 mm 1 m/s 707 mmHg 42%
    12:00 +37°C° 0 mm 1 m/s 706 mmHg 36%
    13:00 +41°C° 0 mm 1 m/s 705 mmHg 29%
    14:00 +37°C° 0 mm 0 m/s 705 mmHg 30%
    15:00 +35°C° 0 mm 0 m/s 704 mmHg 32%
    16:00 +34°C° 0 mm 0 m/s 703 mmHg 33%
    17:00 +32°C° 0 mm 0 m/s 703 mmHg 37%
    18:00 +31°C° 0 mm 0 m/s 703 mmHg 41%
    19:00 +31°C° 0 mm 1 m/s 703 mmHg 44%
    20:00 +30°C° 0,3 mm 1 m/s 704 mmHg 49%
    21:00 +29°C° 0,3 mm 1 m/s 704 mmHg 54%
    22:00 +28°C° 0,3 mm 1 m/s 705 mmHg 58%
    23:00 +27°C° 0,3 mm 1 m/s 705 mmHg 64%

    Demain, 22 Février, Jeudi

    Heure Température Précipitation Vent Pression Humidité
    00:00 +27°C° 0,3 mm 1 m/s 705 mmHg 69%
    01:00 +26°C° 0,3 mm 2 m/s 704 mmHg 74%
    02:00 +25°C° 0 mm 2 m/s 704 mmHg 77%
    03:00 +25°C° 0 mm 2 m/s 704 mmHg 80%
    04:00 +25°C° 0 mm 2 m/s 704 mmHg 83%
    05:00 +25°C° 0 mm 2 m/s 705 mmHg 82%
    06:00 +25°C° 0 mm 2 m/s 705 mmHg 82%
    07:00 +25°C° 0 mm 2 m/s 706 mmHg 81%
    08:00 +27°C° 0 mm 2 m/s 706 mmHg 71%
    09:00 +29°C° 0 mm 2 m/s 707 mmHg 61%
    10:00 +33°C° 0 mm 3 m/s 707 mmHg 52%
    11:00 +34°C° 0 mm 2 m/s 706 mmHg 46%
    12:00 +36°C° 0 mm 2 m/s 706 mmHg 41%
    13:00 +38°C° 0 mm 2 m/s 705 mmHg 35%
    14:00 +37°C° 0 mm 2 m/s 704 mmHg 36%
    15:00 +37°C° 0 mm 2 m/s 703 mmHg 36%
    16:00 +36°C° 0 mm 2 m/s 703 mmHg 37%
    17:00 +35°C° 0 mm 2 m/s 703 mmHg 42%
    18:00 +32°C° 0 mm 1 m/s 703 mmHg 46%
    19:00 +31°C° 0 mm 1 m/s 704 mmHg 51%
    20:00 +29°C° 1,1 mm 1 m/s 704 mmHg 60%
    21:00 +28°C° 1,1 mm 1 m/s 704 mmHg 69%
    22:00 +26°C° 1,1 mm 1 m/s 705 mmHg 78%
    23:00 +26°C° 0,2 mm 1 m/s 705 mmHg 79%

    Après-demain, 23 Février, Vendredi

    Heure Température Précipitation Vent Pression Humidité
    00:00 +26°C° 0,2 mm 1 m/s 705 mmHg 81%
    01:00 +26°C° 0,2 mm 1 m/s 705 mmHg 83%
    02:00 +25°C° 0,3 mm 1 m/s 704 mmHg 84%
    03:00 +25°C° 0,3 mm 2 m/s 704 mmHg 85%
    04:00 +25°C° 0,3 mm 2 m/s 704 mmHg 86%
    05:00 +25°C° 1,3 mm 2 m/s 705 mmHg 86%
    06:00 +25°C° 1,3 mm 1 m/s 705 mmHg 87%
    07:00 +25°C° 1,3 mm 1 m/s 706 mmHg 87%
    08:00 +26°C° 0,6 mm 1 m/s 707 mmHg 82%
    09:00 +27°C° 0,6 mm 2 m/s 707 mmHg 77%
    10:00 +28°C° 0,6 mm 2 m/s 707 mmHg 72%
    11:00 +30°C° 0 mm 2 m/s 707 mmHg 63%
    12:00 +32°C° 0 mm 2 m/s 706 mmHg 54%
    13:00 +35°C° 0 mm 2 m/s 705 mmHg 45%
    14:00 +35°C° 0 mm 2 m/s 705 mmHg 45%
    15:00 +34°C° 0 mm 2 m/s 704 mmHg 46%
    16:00 +34°C° 0 mm 2 m/s 704 mmHg 46%
    17:00 +32°C° 0 mm 1 m/s 704 mmHg 52%
    18:00 +30°C° 0 mm 1 m/s 704 mmHg 57%
    19:00 +29°C° 0 mm 1 m/s 704 mmHg 63%
    20:00 +28°C° 0 mm 1 m/s 704 mmHg 66%
    21:00 +27°C° 0 mm 1 m/s 705 mmHg 68%
    22:00 +27°C° 0 mm 1 m/s 705 mmHg 71%
    23:00 +26°C° 0 mm 1 m/s 705 mmHg 73%

    24 Février, Samedi

    Heure Température Précipitation Vent Pression Humidité
    00:00 +26°C° 0 mm 1 m/s 705 mmHg 74%
    01:00 +26°C° 0 mm 1 m/s 704 mmHg 76%
    02:00 +25°C° 0,3 mm 1 m/s 704 mmHg 79%
    03:00 +25°C° 0,3 mm 1 m/s 704 mmHg 82%
    04:00 +24°C° 0,3 mm 1 m/s 705 mmHg 85%
    05:00 +24°C° 0,8 mm 1 m/s 705 mmHg 86%
    06:00 +24°C° 0,8 mm 1 m/s 706 mmHg 87%
    07:00 +24°C° 0,8 mm 1 m/s 707 mmHg 87%
    08:00 +25°C° 0,1 mm 1 m/s 707 mmHg 84%
    09:00 +26°C° 0,1 mm 2 m/s 707 mmHg 80%
    10:00 +27°C° 0,1 mm 2 m/s 707 mmHg 76%
    11:00 +29°C° 0 mm 2 m/s 707 mmHg 69%
    12:00 +30°C° 0 mm 2 m/s 706 mmHg 61%
    13:00 +32°C° 0 mm 2 m/s 705 mmHg 54%
    14:00 +32°C° 0 mm 2 m/s 705 mmHg 51%
    15:00 +34°C° 0 mm 2 m/s 704 mmHg 48%
    16:00 +34°C° 0 mm 1 m/s 704 mmHg 46%
    17:00 +32°C° 0 mm 1 m/s 704 mmHg 51%
    18:00 +31°C° 0 mm 1 m/s 704 mmHg 56%
    19:00 +29°C° 0 mm 1 m/s 705 mmHg 61%
    20:00 +28°C° 0 mm 1 m/s 705 mmHg 63%
    21:00 +28°C° 0 mm 1 m/s 705 mmHg 66%
    22:00 +27°C° 0 mm 1 m/s 705 mmHg 68%
    23:00 +27°C° 0 mm 1 m/s 705 mmHg 70%

    25 Février, Dimanche

    Heure Température Précipitation Vent Pression Humidité
    00:00 +26°C° 0 mm 1 m/s 705 mmHg 72%
    01:00 +26°C° 0 mm 1 m/s 705 mmHg 74%
    02:00 +25°C° 0,1 mm 1 m/s 705 mmHg 76%
    03:00 +25°C° 0,1 mm 1 m/s 705 mmHg 77%
    04:00 +25°C° 0,1 mm 1 m/s 705 mmHg 79%
    05:00 +25°C° 0,5 mm 1 m/s 706 mmHg 81%
    06:00 +24°C° 0,5 mm 1 m/s 706 mmHg 83%
    07:00 +24°C° 0,5 mm 2 m/s 707 mmHg 86%
    08:00 +26°C° 0 mm 2 m/s 707 mmHg 77%
    09:00 +29°C° 0 mm 2 m/s 708 mmHg 68%
    10:00 +31°C° 0 mm 3 m/s 708 mmHg 59%
    11:00 +34°C° 0 mm 2 m/s 707 mmHg 52%
    12:00 +35°C° 0 mm 2 m/s 706 mmHg 46%
    13:00 +37°C° 0 mm 2 m/s 705 mmHg 40%
    14:00 +37°C° 0 mm 2 m/s 705 mmHg 40%
    15:00 +35°C° 0 mm 1 m/s 704 mmHg 40%
    16:00 +35°C° 0 mm 1 m/s 704 mmHg 40%
    17:00 +33°C° 0 mm 1 m/s 704 mmHg 45%
    18:00 +32°C° 0 mm 1 m/s 704 mmHg 51%
    19:00 +30°C° 0 mm 1 m/s 704 mmHg 56%
    20:00 +29°C° 0,6 mm 2 m/s 705 mmHg 64%
    21:00 +28°C° 0,6 mm 2 m/s 705 mmHg 72%
    22:00 +27°C° 0,6 mm 2 m/s 706 mmHg 79%
    23:00 +26°C° 0,1 mm 2 m/s 706 mmHg 81%

    26 Février, Lundi

    Heure Température Précipitation Vent Pression Humidité
    00:00 +26°C° 0,1 mm 2 m/s 705 mmHg 83%
    01:00 +25°C° 0,1 mm 2 m/s 705 mmHg 85%
    02:00 +25°C° 0 mm 2 m/s 705 mmHg 86%
    03:00 +25°C° 0 mm 1 m/s 705 mmHg 87%
    04:00 +24°C° 0 mm 1 m/s 705 mmHg 88%
    05:00 +25°C° 0 mm 1 m/s 706 mmHg 87%
    06:00 +25°C° 0 mm 2 m/s 706 mmHg 86%
    07:00 +25°C° 0 mm 2 m/s 707 mmHg 86%
    08:00 +26°C° 0 mm 2 m/s 707 mmHg 79%
    09:00 +28°C° 0 mm 3 m/s 708 mmHg 72%
    10:00 +29°C° 0 mm 3 m/s 708 mmHg 65%
    11:00 +31°C° 0 mm 3 m/s 707 mmHg 59%
    12:00 +33°C° 0 mm 3 m/s 707 mmHg 53%
    13:00 +35°C° 0 mm 3 m/s 706 mmHg 47%
    14:00 +35°C° 0 mm 2 m/s 706 mmHg 45%
    15:00 +35°C° 0 mm 2 m/s 705 mmHg 43%
    16:00 +34°C° 0 mm 1 m/s 705 mmHg 40%
    17:00 +33°C° 0 mm 1 m/s 705 mmHg 46%
    18:00 +31°C° 0 mm 1 m/s 705 mmHg 51%
    19:00 +29°C° 0 mm 1 m/s 705 mmHg 56%
    20:00 +29°C° 0,1 mm 1 m/s 705 mmHg 60%
    21:00 +28°C° 0,1 mm 1 m/s 706 mmHg 64%
    22:00 +27°C° 0,1 mm 1 m/s 706 mmHg 68%
    23:00 +26°C° 0,4 mm 1 m/s 706 mmHg 72%
    Voir plus